Time,TemperatureF,DewpointF,PressureIn,WindDirection,WindDirectionDegrees,WindSpeedMPH,WindSpeedGustMPH,Humidity,HourlyPrecipIn,Conditions,Clouds,dailyrainin,SoftwareType,DateUTC
2013-07-25 00:08:00,52.0,51.0,29.90,NNW,333,3.0,-999.0,95,-99.99,,,0.00,weatherlink.com 1.10,2013-07-25 07:08:00,
2013-07-25 00:23:00,51.7,50.0,29.89,NNW,335,4.0,-999.0,95,-99.99,,,0.00,weatherlink.com 1.10,2013-07-25 07:23:00,
2013-07-25 00:38:00,51.7,50.0,29.89,NNW,333,4.0,-999.0,95,-99.99,,,0.00,weatherlink.com 1.10,2013-07-25 07:38:00,
2013-07-25 00:52:00,51.5,50.0,29.88,NW,323,5.0,-999.0,95,-99.99,,,0.00,weatherlink.com 1.10,2013-07-25 07:52:00,
2013-07-25 01:07:00,51.5,50.0,29.88,NW,326,4.0,-999.0,95,-99.99,,,0.00,weatherlink.com 1.10,2013-07-25 08:07:00,
2013-07-25 01:23:00,51.5,50.0,29.89,NNW,327,3.0,-999.0,95,-99.99,,,0.00,weatherlink.com 1.10,2013-07-25 08:23:00,
2013-07-25 01:38:00,51.2,50.0,29.88,NNW,327,3.0,-999.0,95,-99.99,,,0.00,weatherlink.com 1.10,2013-07-25 08:38:00,
2013-07-25 01:52:00,51.2,50.0,29.88,NNW,327,2.0,-999.0,95,-99.99,,,0.00,weatherlink.com 1.10,2013-07-25 08:52:00,
2013-07-25 02:08:00,51.0,50.0,29.88,NNW,327,3.0,-999.0,96,-99.99,,,0.00,weatherlink.com 1.10,2013-07-25 09:08:00,
2013-07-25 02:23:00,51.0,50.0,29.88,NNW,327,3.0,-999.0,96,-99.99,,,0.00,weatherlink.com 1.10,2013-07-25 09:23:00,
2013-07-25 02:38:00,51.0,50.0,29.88,NNW,327,3.0,-999.0,96,-99.99,,,0.00,weatherlink.com 1.10,2013-07-25 09:38:00,
2013-07-25 02:53:00,50.8,50.0,29.87,NNW,327,3.0,-999.0,96,-99.99,,,0.00,weatherlink.com 1.10,2013-07-25 09:53:00,
2013-07-25 03:08:00,50.6,50.0,29.87,NNW,327,3.0,-999.0,96,-99.99,,,0.00,weatherlink.com 1.10,2013-07-25 10:08:00,
2013-07-25 03:23:00,50.6,50.0,29.87,NNW,327,4.0,-999.0,96,-99.99,,,0.00,weatherlink.com 1.10,2013-07-25 10:23:00,
2013-07-25 03:38:00,50.6,50.0,29.87,NNW,327,3.0,-999.0,96,-99.99,,,0.00,weatherlink.com 1.10,2013-07-25 10:38:00,
2013-07-25 03:52:00,50.5,49.0,29.87,NNW,327,2.0,-999.0,96,-99.99,,,0.00,weatherlink.com 1.10,2013-07-25 10:52:00,
2013-07-25 04:07:00,50.5,49.0,29.88,NNW,327,0.0,-999.0,96,-99.99,,,0.00,weatherlink.com 1.10,2013-07-25 11:07:00,
2013-07-25 04:23:00,50.3,49.0,29.87,NNW,327,1.0,-999.0,96,-99.99,,,0.00,weatherlink.com 1.10,2013-07-25 11:23:00,
2013-07-25 04:38:00,50.2,49.0,29.88,NNW,327,1.0,-999.0,96,-99.99,,,0.00,weatherlink.com 1.10,2013-07-25 11:38:00,
2013-07-25 04:53:00,50.0,49.0,29.88,NNW,327,0.0,-999.0,96,-99.99,,,0.00,weatherlink.com 1.10,2013-07-25 11:53:00,
2013-07-25 05:08:00,50.0,49.0,29.88,NNW,327,0.0,-999.0,96,-99.99,,,0.00,weatherlink.com 1.10,2013-07-25 12:08:00,
2013-07-25 05:22:00,50.0,49.0,29.88,NNW,327,0.0,-999.0,96,-99.99,,,0.00,weatherlink.com 1.10,2013-07-25 12:22:00,
2013-07-25 05:38:00,49.9,49.0,29.88,NNW,327,0.0,-999.0,96,-99.99,,,0.00,weatherlink.com 1.10,2013-07-25 12:38:00,
2013-07-25 05:53:00,49.7,49.0,29.88,NNW,327,0.0,-999.0,96,-99.99,,,0.00,weatherlink.com 1.10,2013-07-25 12:53:00,
2013-07-25 06:08:00,49.6,49.0,29.88,NNW,327,0.0,-999.0,96,-99.99,,,0.00,weatherlink.com 1.10,2013-07-25 13:08:00,
2013-07-25 06:22:00,49.5,48.0,29.89,NNW,327,1.0,-999.0,96,-99.99,,,0.00,weatherlink.com 1.10,2013-07-25 13:22:00,
2013-07-25 06:38:00,49.5,48.0,29.90,NNW,327,1.0,-999.0,96,-99.99,,,0.00,weatherlink.com 1.10,2013-07-25 13:38:00,
2013-07-25 06:52:00,49.4,48.0,29.90,NNW,327,0.0,-999.0,96,-99.99,,,0.00,weatherlink.com 1.10,2013-07-25 13:52:00,
2013-07-25 07:07:00,49.6,49.0,29.90,NNW,327,2.0,-999.0,96,-99.99,,,0.00,weatherlink.com 1.10,2013-07-25 14:07:00,
2013-07-25 07:23:00,49.9,49.0,29.90,NNW,327,2.0,-999.0,96,-99.99,,,0.00,weatherlink.com 1.10,2013-07-25 14:23:00,
2013-07-25 07:37:00,49.9,49.0,29.91,NW,308,0.0,-999.0,96,-99.99,,,0.00,weatherlink.com 1.10,2013-07-25 14:37:00,
2013-07-25 07:53:00,50.3,49.0,29.91,WNW,293,2.0,-999.0,96,-99.99,,,0.00,weatherlink.com 1.10,2013-07-25 14:53:00,
2013-07-25 08:07:00,50.6,50.0,29.92,WNW,293,2.0,-999.0,96,-99.99,,,0.00,weatherlink.com 1.10,2013-07-25 15:07:00,
2013-07-25 08:22:00,50.7,50.0,29.92,WNW,293,0.0,-999.0,96,-99.99,,,0.00,weatherlink.com 1.10,2013-07-25 15:22:00,
2013-07-25 08:37:00,51.0,50.0,29.93,WNW,293,0.0,-999.0,96,-99.99,,,0.00,weatherlink.com 1.10,2013-07-25 15:37:00,
2013-07-25 08:52:00,51.4,50.0,29.93,WNW,293,3.0,-999.0,96,-99.99,,,0.00,weatherlink.com 1.10,2013-07-25 15:52:00,
2013-07-25 09:07:00,51.4,50.0,29.93,WNW,293,2.0,-999.0,96,-99.99,,,0.00,weatherlink.com 1.10,2013-07-25 16:07:00,
2013-07-25 09:23:00,51.5,50.0,29.94,WNW,293,2.0,-999.0,96,-99.99,,,0.00,weatherlink.com 1.10,2013-07-25 16:23:00,
2013-07-25 09:38:00,51.7,51.0,29.94,WNW,293,1.0,-999.0,96,-99.99,,,0.00,weatherlink.com 1.10,2013-07-25 16:38:00,
2013-07-25 09:53:00,52.0,51.0,29.94,WNW,293,1.0,-999.0,96,-99.99,,,0.00,weatherlink.com 1.10,2013-07-25 16:53:00,
2013-07-25 10:08:00,51.8,51.0,29.95,WNW,293,2.0,-999.0,96,-99.99,,,0.00,weatherlink.com 1.10,2013-07-25 17:08:00,
2013-07-25 10:22:00,51.8,51.0,29.95,WNW,293,3.0,-999.0,96,-99.99,,,0.00,weatherlink.com 1.10,2013-07-25 17:22:00,
2013-07-25 10:38:00,52.3,51.0,29.95,WNW,293,4.0,-999.0,96,-99.99,,,0.00,weatherlink.com 1.10,2013-07-25 17:38:00,
2013-07-25 10:53:00,52.2,51.0,29.95,WNW,293,2.0,-999.0,96,-99.99,,,0.00,weatherlink.com 1.10,2013-07-25 17:53:00,
2013-07-25 11:08:00,52.9,52.0,29.95,WNW,284,1.0,-999.0,95,-99.99,,,0.00,weatherlink.com 1.10,2013-07-25 18:08:00,
2013-07-25 11:23:00,54.4,53.0,29.96,WSW,257,1.0,-999.0,95,-99.99,,,0.00,weatherlink.com 1.10,2013-07-25 18:23:00,
2013-07-25 11:38:00,55.0,53.0,29.96,WSW,246,4.0,-999.0,93,-99.99,,,0.00,weatherlink.com 1.10,2013-07-25 18:38:00,
2013-07-25 11:53:00,55.5,53.0,29.96,West,265,3.0,-999.0,90,-99.99,,,0.00,weatherlink.com 1.10,2013-07-25 18:53:00,
2013-07-25 12:07:00,56.6,53.0,29.97,WSW,244,3.0,-999.0,88,-99.99,,,0.00,weatherlink.com 1.10,2013-07-25 19:07:00,
2013-07-25 12:23:00,56.2,52.0,29.97,WSW,253,4.0,-999.0,87,-99.99,,,0.00,weatherlink.com 1.10,2013-07-25 19:23:00,
2013-07-25 12:38:00,55.5,52.0,29.96,WSW,254,3.0,-999.0,89,-99.99,,,0.00,weatherlink.com 1.10,2013-07-25 19:38:00,
2013-07-25 12:52:00,56.4,53.0,29.96,WSW,251,5.0,-999.0,88,-99.99,,,0.00,weatherlink.com 1.10,2013-07-25 19:52:00,
2013-07-25 13:07:00,57.4,54.0,29.96,WSW,251,5.0,-999.0,87,-99.99,,,0.00,weatherlink.com 1.10,2013-07-25 20:07:00,
2013-07-25 13:23:00,58.0,54.0,29.96,WSW,242,3.0,-999.0,86,-99.99,,,0.00,weatherlink.com 1.10,2013-07-25 20:23:00,
2013-07-25 13:38:00,58.0,54.0,29.96,WSW,257,5.0,-999.0,85,-99.99,,,0.00,weatherlink.com 1.10,2013-07-25 20:38:00,
2013-07-25 13:52:00,58.2,54.0,29.96,WSW,239,1.0,-999.0,85,-99.99,,,0.00,weatherlink.com 1.10,2013-07-25 20:52:00,
2013-07-25 14:08:00,58.0,54.0,29.96,WSW,254,3.0,-999.0,86,-99.99,,,0.00,weatherlink.com 1.10,2013-07-25 21:08:00,
2013-07-25 14:23:00,58.4,54.0,29.96,West,277,5.0,-999.0,85,-99.99,,,0.00,weatherlink.com 1.10,2013-07-25 21:23:00,
2013-07-25 14:39:00,57.6,53.0,29.96,West,275,5.0,-999.0,85,-99.99,,,0.00,weatherlink.com 1.10,2013-07-25 21:39:00,
2013-07-25 14:52:00,57.6,54.0,29.96,West,274,2.0,-999.0,86,-99.99,,,0.00,weatherlink.com 1.10,2013-07-25 21:52:00,
2013-07-25 15:07:00,57.9,53.0,29.96,West,268,3.0,-999.0,84,-99.99,,,0.00,weatherlink.com 1.10,2013-07-25 22:07:00,
2013-07-25 15:22:00,57.7,54.0,29.96,West,259,3.0,-999.0,86,-99.99,,,0.00,weatherlink.com 1.10,2013-07-25 22:22:00,
2013-07-25 15:37:00,56.9,53.0,29.95,West,259,3.0,-999.0,87,-99.99,,,0.00,weatherlink.com 1.10,2013-07-25 22:37:00,
2013-07-25 16:08:00,56.4,53.0,29.95,West,259,5.0,-999.0,88,-99.99,,,0.00,weatherlink.com 1.10,2013-07-25 23:08:00,
2013-07-25 16:23:00,56.3,53.0,29.94,West,259,5.0,-999.0,88,-99.99,,,0.00,weatherlink.com 1.10,2013-07-25 23:23:00,
2013-07-25 16:38:00,56.1,53.0,29.94,NW,309,7.0,-999.0,89,-99.99,,,0.00,weatherlink.com 1.10,2013-07-25 23:38:00,
2013-07-25 16:53:00,55.9,52.0,29.94,West,272,5.0,-999.0,88,-99.99,,,0.00,weatherlink.com 1.10,2013-07-25 23:53:00,
2013-07-25 17:09:00,55.9,52.0,29.94,WNW,293,7.0,-999.0,88,-99.99,,,0.00,weatherlink.com 1.10,2013-07-26 00:09:00,
2013-07-25 17:23:00,55.6,53.0,29.94,NW,311,4.0,-999.0,90,-99.99,,,0.00,weatherlink.com 1.10,2013-07-26 00:23:00,
2013-07-25 17:38:00,55.5,53.0,29.94,WNW,300,1.0,-999.0,90,-99.99,,,0.00,weatherlink.com 1.10,2013-07-26 00:38:00,
2013-07-25 17:53:00,55.0,52.0,29.93,NW,319,8.0,-999.0,90,-99.99,,,0.00,weatherlink.com 1.10,2013-07-26 00:53:00,
2013-07-25 18:07:00,54.6,52.0,29.93,WNW,299,6.0,-999.0,91,-99.99,,,0.00,weatherlink.com 1.10,2013-07-26 01:07:00,
2013-07-25 18:23:00,54.3,52.0,29.93,NW,319,5.0,-999.0,92,-99.99,,,0.00,weatherlink.com 1.10,2013-07-26 01:23:00,
2013-07-25 18:39:00,53.9,52.0,29.93,NW,317,3.0,-999.0,92,-99.99,,,0.00,weatherlink.com 1.10,2013-07-26 01:39:00,
2013-07-25 18:53:00,53.7,52.0,29.94,NW,308,4.0,-999.0,92,-99.99,,,0.00,weatherlink.com 1.10,2013-07-26 01:53:00,
2013-07-25 19:07:00,53.4,51.0,29.94,NW,313,4.0,-999.0,92,-99.99,,,0.00,weatherlink.com 1.10,2013-07-26 02:07:00,
2013-07-25 19:22:00,52.9,51.0,29.94,NW,314,6.0,-999.0,93,-99.99,,,0.00,weatherlink.com 1.10,2013-07-26 02:22:00,
2013-07-25 19:37:00,52.4,51.0,29.94,NW,315,3.0,-999.0,93,-99.99,,,0.00,weatherlink.com 1.10,2013-07-26 02:37:00,
2013-07-25 19:53:00,52.0,50.0,29.94,NW,316,4.0,-999.0,93,-99.99,,,0.00,weatherlink.com 1.10,2013-07-26 02:53:00,
2013-07-25 20:08:00,51.8,50.0,29.94,NW,317,4.0,-999.0,94,-99.99,,,0.00,weatherlink.com 1.10,2013-07-26 03:08:00,
2013-07-25 20:23:00,51.8,51.0,29.94,NW,319,5.0,-999.0,95,-99.99,,,0.00,weatherlink.com 1.10,2013-07-26 03:23:00,
2013-07-25 20:37:00,51.5,50.0,29.94,NW,316,5.0,-999.0,95,-99.99,,,0.00,weatherlink.com 1.10,2013-07-26 03:37:00,
2013-07-25 20:52:00,51.4,50.0,29.95,NW,321,5.0,-999.0,95,-99.99,,,0.00,weatherlink.com 1.10,2013-07-26 03:52:00,
2013-07-25 21:08:00,51.1,50.0,29.96,NW,321,3.0,-999.0,95,-99.99,,,0.00,weatherlink.com 1.10,2013-07-26 04:08:00,
2013-07-25 21:23:00,51.1,50.0,29.96,NW,321,2.0,-999.0,95,-99.99,,,0.00,weatherlink.com 1.10,2013-07-26 04:23:00,
2013-07-25 21:37:00,51.0,50.0,29.96,NW,321,2.0,-999.0,95,-99.99,,,0.00,weatherlink.com 1.10,2013-07-26 04:37:00,
2013-07-25 21:52:00,51.0,50.0,29.97,NW,321,1.0,-999.0,95,-99.99,,,0.00,weatherlink.com 1.10,2013-07-26 04:52:00,
2013-07-25 22:09:00,51.0,50.0,29.97,NW,321,0.0,-999.0,95,-99.99,,,0.00,weatherlink.com 1.10,2013-07-26 05:09:00,
2013-07-25 22:22:00,50.9,50.0,29.97,NW,321,1.0,-999.0,95,-99.99,,,0.00,weatherlink.com 1.10,2013-07-26 05:22:00,
2013-07-25 22:39:00,50.7,49.0,29.97,NW,321,0.0,-999.0,95,-99.99,,,0.00,weatherlink.com 1.10,2013-07-26 05:39:00,
2013-07-25 22:52:00,50.7,49.0,29.97,NW,321,1.0,-999.0,95,-99.99,,,0.00,weatherlink.com 1.10,2013-07-26 05:52:00,
2013-07-25 23:09:00,50.6,50.0,29.97,NW,321,0.0,-999.0,96,-99.99,,,0.00,weatherlink.com 1.10,2013-07-26 06:09:00,
2013-07-25 23:23:00,50.5,49.0,29.97,NW,321,0.0,-999.0,96,-99.99,,,0.00,weatherlink.com 1.10,2013-07-26 06:23:00,
2013-07-25 23:37:00,50.2,49.0,29.97,NW,321,0.0,-999.0,96,-99.99,,,0.00,weatherlink.com 1.10,2013-07-26 06:37:00,
2013-07-25 23:53:00,50.2,49.0,29.97,NW,321,1.0,-999.0,96,-99.99,,,0.00,weatherlink.com 1.10,2013-07-26 06:53:00,